Location: Rancho Santa Fe Post Office
(33.0184°N, 117.2026°W)
Time: 05:08:13
(UTC+00:00)

NOSS 3-2 (A) - Pass Details

Date: 10 September 2024
Orbit: 700 x 1505 km, 63.4° (Epoch: 09 October)

Event Time Altitude Azimuth Distance (km) Brightness Sun altitude
Exits shadow 12:54:54 10° 263° (W) 2,276 4.8 -8.0°
Reaches altitude 10° 12:54:59 10° 263° (W) 2,254 4.7 -8.0°
Maximum altitude 12:58:55 22° 314° (NW) 1,687 4.5 -7.2°
Drops below altitude 10° 13:03:19 10° 4° (N) 2,539 5.9 -6.3°
Sets 13:06:38 0° 20° (NNE) 3,626 6.9 -5.6°
